Find Local Weather

World > North America > United States > Arizona

Cave Creek, Arizona Regional Weather

Lat: 33.83N, Lon: 111.97W
Wx Zone: AZZ543
Feedback
Expires:201804241400;;427359
ASUS45 KPSR 241310
RWRAZ 

ARIZONA HOURLY REGIONAL WEATHER ROUNDUP
NATIONAL WEATHER SERVICE PHOENIX AZ
600 AM MST TUE APR 24 2018

NOTE: FAIR INDICATES FEW OR NO CLOUDS BELOW 12,000 FEET WITH NO
SIGNIFICANT WEATHER AND/OR OBSTRUCTIONS TO VISIBILITY.


AZZ540-542>544-546-548-241400-
GREATER PHOENIX AREA
  
CITY           SKY/WX    TMP DP  RH WIND       PRES   REMARKS
PHOENIX        MOCLDY    68  30  24 E8        29.91R                  
BUCKEYE        PTCLDY    63  23  22 N8        29.92R                  
DEER VALLEY    PTCLDY    66  25  21 E7        29.93R                  
SCOTTSDALE     PTCLDY    66  36  32 CALM      29.95R                  
MESA-FALCON    MOCLDY    72  27  18 NE3       29.94                   
MESA-GATEWAY   PTCLDY    64  25  22 E9        29.94R                  
CHANDLER       MOCLDY    64  32  29 N5        29.93                   
$$


SKY/WX - Weather  TMP - Temperature  DP - Dewpoint  RH - Relative Humidity
WIND - Wind Direction/Speed PRES - Barometric Pressure